[[{"header":{"parameterUnit":"m.s-1","parameterCategory":1,"la1":30.2991,"la2":30.254,"lo1":-89.0895,"lo2":-89.0444,"dy":0.0017,"dx":0.0017,"nx":28,"ny":28,"refTime":"2025-08-28T21:00:00:Z","depth":0,"parameterNumber":2,"parameterNumberName":"U-component_of_WINDS"},"data":[0,0,0,0,0,0,0,0,0,0,0,0,0,0,0,0,0,0,0,0,0,0,0,0,0,0,0,0,0,0,0,0,0,0,0,0,0,0,0,0,0,0,0,0,0,0,0,0,0,0,0,0,0,0,0,0,0,0,-4.1491,-4.1493,0,-4.1717,-4.1719,-4.1722,-4.1751,-4.1749,-4.1746,-4.1744,-4.1973,-4.1981,-4.1989,0,0,0,0,0,0,0,0,0,0,0,0,0,-4.1083,-4.109,-4.149,-4.1493,-4.1496,-4.1716,-4.1719,-4.1722,-4.1751,-4.1749,-4.1746,-4.1743,-4.1971,-4.198,-4.199,0,0,0,0,0,0,0,0,0,0,0,0,0,-4.128,-4.1093,-4.149,-4.1537,-4.1543,-4.1716,-4.1719,-4.1723,-4.1752,-4.1748,-4.1745,-4.1742,-4.1968,-4.1979,-4.1991,-4.2131,0,0,-4.2029,-4.2034,0,0,0,0,0,0,0,0,-4.1268,-4.1294,-4.1527,-4.1534,-4.1542,-4.1702,-4.166,-4.186,-4.1753,-4.1673,-4.1744,-4.1741,-4.1886,-4.1904,-4.1954,-4.2142,-4.2152,-4.203,-4.2037,-4.2042,-4.2046,0,0,0,0,0,0,0,-4.1255,-4.1285,-4.158,-4.1531,-4.1539,-4.1547,-4.1571,-4.1698,-4.1794,-4.1679,-4.1682,-4.1708,-4.1889,-4.1942,-4.1959,-4.2155,-4.2029,-4.204,-4.2048,-4.2052,-4.2471,-4.2475,0,0,0,0,0,0,-4.1233,-4.1273,-4.1573,-4.1587,-4.1394,-4.1557,-4.1584,-4.1654,-4.1793,-4.1811,-4.1711,-4.1709,-4.1923,-4.1945,-4.1968,-4.2141,-4.2042,-4.2054,-4.2061,-4.2468,-4.2472,-4.2476,0,0,0,0,0,0,-4.1224,-4.1259,-4.1563,-4.1431,-4.147,-4.1567,-4.1646,-4.166,-4.1713,-4.1817,-4.1834,-4.1747,-4.1921,-4.195,-4.2091,-4.2149,-4.2059,-4.207,-4.2463,-4.2469,-4.2474,-4.2488,0,0,0,0,0,0,-4.1212,-4.1256,-4.131,-4.1432,-4.1477,-4.1683,-4.1649,-4.1667,-4.1734,-4.1734,-4.1856,-4.1873,-4.1921,-4.2073,-4.2103,-4.2164,-4.208,-4.2458,-4.2466,-4.2473,-4.2482,-4.2493,-4.2502,0,0,0,0,0,-4.1197,-4.1304,-4.1312,-4.1348,-4.1547,-4.1686,-4.1712,-4.1766,-4.1739,-4.1794,-4.1861,-4.1869,-4.2139,-4.2087,-4.2121,-4.2187,-4.2455,-4.2464,-4.2472,-4.2478,-4.2491,-4.2502,0,0,0,0,0,0,-4.1184,-4.132,-4.1331,-4.1481,-4.1572,-4.1691,-4.1762,-4.1778,-4.1878,-4.1873,-4.1935,-4.1962,-4.21,-4.2158,-4.2098,-4.2331,-4.2294,-4.231,-4.2287,-4.23,-4.231,-4.2292,-4.209,0,0,0,0,0,-4.1199,-4.1301,-4.1415,-4.1535,-4.1581,-4.1664,-4.1726,-4.176,-4.1857,-4.1895,-4.1973,-4.2066,-4.2172,-4.2239,-4.2343,-4.2492,-4.2519,-4.2555,-4.2565,-4.2572,-4.2584,-4.2668,-4.2685,-4.2505,-4.2505,-4.2504,0,0,-4.123,-4.1317,-4.1377,-4.1535,-4.161,-4.1714,-4.1696,-4.1806,-4.1884,-4.1912,-4.2049,-4.211,-4.2218,-4.2364,-4.2432,-4.2416,-4.2641,-4.2583,-4.2589,-4.2597,-4.2679,-4.2696,-4.2711,-4.2511,-4.2509,-4.2509,0,0,-4.1339,-4.1415,-4.1524,-4.16,-4.1714,-4.1769,-4.1796,-4.1914,-4.1955,-4.2094,-4.2117,-4.2212,-4.2392,-4.2468,-4.2531,-4.2673,-4.2683,-4.2705,-4.2755,-4.2837,-4.2851,-4.2864,-4.2913,-4.293,-4.2717,-4.2717,-4.2717,0,-4.1362,-4.152,-4.1578,-4.1689,-4.1758,-4.179,-4.1901,-4.1971,-4.2113,-4.2159,-4.2141,-4.237,-4.2445,-4.2609,-4.2644,-4.2694,-4.2725,-4.2689,-4.2844,-4.2858,-4.2871,-4.2919,-4.2937,-4.2719,-4.2719,-4.2718,-4.2718,0,-4.1543,-4.1653,-4.1728,-4.1865,-4.1942,-4.2052,-4.2127,-4.2199,-4.2227,-4.2284,-4.2426,-4.2518,-4.264,-4.2683,-4.2711,-4.2852,-4.2839,-4.2832,-4.2796,-4.2888,-4.2934,-4.2953,-4.2721,-4.2721,-4.272,-4.272,0,0,-4.1646,-4.1817,-4.1843,-4.1906,-4.2036,-4.2121,-4.2234,-4.2355,-4.2415,-4.2513,-4.2608,-4.2762,-4.2757,-4.2828,-4.2866,-4.2937,-4.3043,-4.2922,-4.2925,-4.294,-4.3204,-4.3206,-4.3227,-4.3052,-4.3056,-4.3059,-4.3194,0,-4.1769,-4.197,-4.2027,-4.2197,-4.2299,-4.2333,-4.2431,-4.2521,-4.2578,-4.2673,-4.2737,-4.2844,-4.283,-4.2873,-4.2946,-4.3014,-4.3096,-4.3006,-4.3141,-4.3145,-4.311,-4.3251,-4.3254,-4.3377,-4.3213,-4.3216,-4.3218,0,-4.1938,-4.204,-4.222,-4.2339,-4.2384,-4.247,-4.2587,-4.2678,-4.2781,-4.2818,-4.2899,-4.2931,-4.305,-4.301,-4.3174,-4.3112,-4.3171,-4.3214,-4.322,-4.3232,-4.3185,-4.3265,-4.3417,-4.3435,-4.3247,-4.3245,-4.3243,0,-4.1994,-4.2177,-4.2308,-4.2362,-4.2503,-4.2563,-4.2625,-4.2726,-4.2795,-4.2898,-4.2943,-4.3058,-4.312,-4.3208,-4.327,-4.3235,-4.3429,-4.3395,-4.3462,-4.3461,-4.3499,-4.3495,-4.366,-4.3541,-4.354,-4.354,-4.354,0,-4.2123,-4.2232,-4.2335,-4.2416,-4.2539,-4.2604,-4.2724,-4.2787,-4.2877,-4.2971,-4.3008,-4.3094,-4.3172,-4.327,-4.332,-4.3448,-4.3476,-4.3509,-4.352,-4.3504,-4.35,-4.3542,-4.3534,-4.3545,-4.3544,-4.3543,-4.3542,0,-4.2205,-4.2279,-4.2424,-4.2547,-4.2581,-4.2666,-4.2771,-4.2851,-4.2911,-4.3029,-4.306,-4.3154,-4.3271,-4.3343,-4.3491,-4.3525,-4.3666,-4.3675,-4.3631,-4.3635,-4.3698,-4.3691,-4.3894,-4.3924,-4.3786,-4.3787,-4.3788,0,-4.2281,-4.2366,-4.2499,-4.2565,-4.2627,-4.2733,-4.2805,-4.2873,-4.2946,-4.3072,-4.3137,-4.3257,-4.3356,-4.3542,-4.3623,-4.3737,-4.3748,-4.3812,-4.3765,-4.3747,-4.3747,-4.3741,-4.3749,-4.3818,-4.3819,-4.382,-4.3821,0,-4.2409,-4.2442,-4.2545,-4.2661,-4.2746,-4.2841,-4.2935,-4.2987,-4.3071,-4.3152,-4.3273,-4.335,-4.3503,-4.3621,-4.3743,-4.3806,-4.3828,-4.3836,-4.3857,-4.384,-4.3811,-4.3827,-4.365,-4.383,-4.3829,-4.3828,-4.3828,-4.3828,-4.249,-4.2567,-4.2673,-4.2786,-4.2865,-4.2953,-4.3034,-4.3105,-4.3207,-4.3337,-4.3372,-4.3498,-4.3602,-4.3767,-4.3834,-4.3934,-4.3924,-4.3956,-4.3963,-4.3969,-4.397,-4.3797,-4.3957,-4.3956,-4.3956,-4.3956,-4.3956,0,-4.2619,-4.2689,-4.2793,-4.2924,-4.3014,-4.3029,-4.3135,-4.3208,-4.3319,-4.3414,-4.3512,-4.3651,-4.3767,-4.3859,-4.3978,-4.404,-4.4053,-4.4069,-4.4064,-4.4078,-4.3972,-4.3941,-4.4057,-4.4057,-4.4057,-4.4057,-4.4057,-4.4057,-4.2696,-4.2827,-4.2873,-4.3044,-4.3114,-4.3238,-4.3297,-4.3379,-4.3455,-4.3609,-4.3706,-4.3766,-4.386,-4.3987,-4.4094,-4.4118,-4.4159,-4.4173,-4.4199,-4.4097,-4.4086,-4.4075,-4.4046,-4.4182,-4.4182,-4.4296,-4.4297,-4.4298]},{"header":{"parameterUnit":"m.s-1","parameterCategory":1,"la1":30.2991,"la2":30.254,"lo1":-89.0895,"lo2":-89.0444,"dy":0.0017,"dx":0.0017,"nx":28,"ny":28,"refTime":"2025-08-28T21:00:00:Z","depth":0,"parameterNumber":3,"parameterNumberName":"V-component_of_WINDS"},"data":[0,0,0,0,0,0,0,0,0,0,0,0,0,0,0,0,0,0,0,0,0,0,0,0,0,0,0,0,0,0,0,0,0,0,0,0,0,0,0,0,0,0,0,0,0,0,0,0,0,0,0,0,0,0,0,0,0,0,4.6056,4.6055,0,4.5934,4.5932,4.5931,4.5782,4.5779,4.5777,4.5775,4.5646,4.5644,4.5643,0,0,0,0,0,0,0,0,0,0,0,0,0,4.6159,4.6158,4.6056,4.6055,4.6053,4.5934,4.5932,4.593,4.5782,4.5779,4.5777,4.5774,4.5646,4.5645,4.5643,0,0,0,0,0,0,0,0,0,0,0,0,0,4.6083,4.6158,4.6057,4.5965,4.5956,4.5934,4.5932,4.593,4.5783,4.5779,4.5776,4.5773,4.5647,4.5645,4.5643,4.57,0,0,4.5637,4.5636,0,0,0,0,0,0,0,0,4.6088,4.608,4.598,4.5971,4.5961,4.5869,4.5921,4.5853,4.5784,4.5848,4.5775,4.5771,4.5723,4.5714,4.5699,4.5694,4.5689,4.5637,4.5636,4.5635,4.5634,0,0,0,0,0,0,0,4.6093,4.6084,4.6008,4.5979,4.5967,4.5929,4.5914,4.5907,4.5806,4.5842,4.5831,4.5819,4.5717,4.5701,4.5695,4.5687,4.5637,4.5635,4.5634,4.5633,4.572,4.5724,0,0,0,0,0,0,4.6113,4.609,4.6011,4.6004,4.6017,4.593,4.5914,4.5902,4.5806,4.5788,4.5822,4.5813,4.5706,4.5697,4.569,4.5747,4.5635,4.5633,4.5632,4.5717,4.5721,4.5725,0,0,0,0,0,0,4.6116,4.6107,4.6016,4.6044,4.6029,4.5932,4.592,4.5902,4.5886,4.5791,4.5772,4.5825,4.5703,4.5692,4.5698,4.5741,4.5632,4.563,4.5713,4.5718,4.5723,4.5867,0,0,0,0,0,0,4.6119,4.6109,4.6131,4.6045,4.6028,4.6029,4.5923,4.5902,4.5883,4.5869,4.5788,4.5771,4.5699,4.5702,4.5697,4.5736,4.5629,4.5708,4.5715,4.5721,4.5857,4.5876,4.5892,0,0,0,0,0,4.6123,4.6176,4.6133,4.6124,4.6054,4.6032,4.6022,4.5939,4.5887,4.5907,4.5846,4.5774,4.5739,4.5704,4.5696,4.5737,4.5705,4.5713,4.5721,4.585,4.5872,4.5892,0,0,0,0,0,0,4.6268,4.6163,4.6114,4.6141,4.6096,4.6007,4.6029,4.5966,4.5934,4.5923,4.5821,4.5803,4.5821,4.578,4.5743,4.5786,4.5711,4.5718,4.5812,4.5832,4.5849,4.5857,4.5627,0,0,0,0,0,4.6303,4.6295,4.6204,4.6236,4.6216,4.6128,4.6115,4.6055,4.6004,4.5985,4.5924,4.5877,4.5854,4.5841,4.5816,4.5852,4.583,4.5876,4.5893,4.5908,4.5913,4.5926,4.5944,4.575,4.575,4.575,0,0,4.6375,4.6317,4.6318,4.6264,4.6222,4.6214,4.6112,4.6109,4.6102,4.5983,4.5985,4.5939,4.588,4.59,4.5906,4.5866,4.5963,4.5918,4.593,4.5927,4.5936,4.5955,4.5971,4.5756,4.5755,4.5754,0,0,4.6501,4.6458,4.6479,4.644,4.6379,4.6319,4.6325,4.6245,4.621,4.6211,4.6121,4.6111,4.6076,4.6036,4.6011,4.6124,4.6054,4.6119,4.6207,4.6221,4.6236,4.6249,4.6285,4.63,4.6125,4.6126,4.6126,0,4.6598,4.6584,4.6497,4.6499,4.6477,4.6372,4.6391,4.6357,4.6291,4.6277,4.6234,4.6186,4.6139,4.6147,4.6175,4.616,4.616,4.6125,4.6241,4.6253,4.6264,4.6298,4.6312,4.6134,4.6133,4.6132,4.6131,0,4.6704,4.6696,4.672,4.6659,4.664,4.6651,4.6565,4.6556,4.6499,4.6443,4.6444,4.6384,4.6343,4.6342,4.6285,4.6342,4.6318,4.626,4.6182,4.6292,4.6321,4.6334,4.6145,4.6142,4.614,4.6138,0,0,4.6914,4.6807,4.6817,4.6787,4.6713,4.6704,4.671,4.6671,4.6664,4.6623,4.6623,4.6596,4.6541,4.6513,4.6452,4.6465,4.6554,4.6404,4.6401,4.643,4.6608,4.665,4.6666,4.6509,4.6511,4.6513,4.6612,0,4.7024,4.7028,4.6951,4.6975,4.6965,4.6866,4.687,4.6824,4.6773,4.6756,4.6699,4.668,4.6612,4.6594,4.6602,4.6541,4.6587,4.6534,4.6505,4.6505,4.6519,4.6682,4.6726,4.6822,4.6623,4.6625,4.6627,0,4.7151,4.7118,4.7142,4.7065,4.7058,4.7064,4.7021,4.7008,4.6953,4.6915,4.6885,4.6815,4.6813,4.6743,4.6737,4.6702,4.6687,4.6655,4.6657,4.6647,4.657,4.6674,4.6851,4.6864,4.6645,4.6643,4.6642,0,4.7298,4.7259,4.7268,4.7246,4.7158,4.7164,4.7127,4.707,4.7051,4.7014,4.7001,4.6965,4.6944,4.6916,4.6838,4.6794,4.684,4.6764,4.6805,4.6807,4.6816,4.6816,4.699,4.6814,4.6813,4.6813,4.6813,0,4.7426,4.7444,4.7332,4.7337,4.7353,4.7265,4.7283,4.7236,4.7186,4.7179,4.7092,4.7086,4.6985,4.6968,4.6907,4.691,4.6902,4.6869,4.6851,4.6874,4.6878,4.6859,4.6849,4.6817,4.6816,4.6815,4.6815,0,4.7591,4.7518,4.7519,4.7437,4.7417,4.7432,4.736,4.736,4.7305,4.7297,4.729,4.7202,4.7177,4.7097,4.7053,4.7011,4.7031,4.7001,4.705,4.7038,4.7083,4.7078,4.7247,4.7263,4.7082,4.7084,4.7085,0,4.7676,4.7687,4.7606,4.7595,4.7563,4.7547,4.7528,4.7442,4.7425,4.7364,4.7371,4.734,4.7309,4.7274,4.7205,4.717,4.7136,4.7198,4.7129,4.7151,4.7132,4.7131,4.713,4.7211,4.7214,4.7216,4.7217,0,4.7832,4.7795,4.7772,4.7736,4.7716,4.7683,4.7644,4.7641,4.7544,4.7529,4.7504,4.7481,4.7435,4.7404,4.7358,4.7318,4.725,4.724,4.7247,4.7268,4.7294,4.7277,4.7086,4.7235,4.7233,4.7232,4.7231,4.723,4.7956,4.7961,4.7904,4.788,4.7843,4.781,4.7805,4.775,4.7727,4.7684,4.7635,4.7615,4.7558,4.749,4.7455,4.7436,4.74,4.7411,4.7413,4.7416,4.7426,4.7301,4.7428,4.7427,4.7427,4.7426,4.7426,0,4.8105,4.8064,4.8044,4.7993,4.7974,4.7916,4.7871,4.7858,4.7842,4.7796,4.7769,4.7738,4.7708,4.7637,4.7599,4.7598,4.7566,4.759,4.7587,4.7579,4.7462,4.7458,4.7617,4.7617,4.7617,4.7617,4.7617,4.7617,4.818,4.8183,4.814,4.8124,4.8083,4.8063,4.8042,4.8009,4.7972,4.7943,4.7917,4.7873,4.7816,4.7774,4.7742,4.7722,4.771,4.7745,4.7714,4.7606,4.7587,4.757,4.7565,4.7744,4.7744,4.7831,4.7832,4.7833]}]]